[[{"header":{"parameterUnit":"m.s-1","parameterCategory":1,"la1":30.2991,"la2":30.254,"lo1":-89.0895,"lo2":-89.0444,"dy":0.0017,"dx":0.0017,"nx":28,"ny":28,"refTime":"2025-02-09T09:00:00:Z","depth":0,"parameterNumber":2,"parameterNumberName":"U-component_of_WINDS"},"data":[0,0,0,0,0,0,0,0,0,0,0,0,0,0,0,0,0,0,0,0,0,0,0,0,0,0,0,0,0,0,0,0,0,0,0,0,0,0,0,0,0,0,0,0,0,0,0,0,0,0,0,0,0,0,0,0,0,0,0.5748,0.5748,0,0.5809,0.581,0.5811,0.5811,0.581,0.5809,0.5808,0.5874,0.5876,0.5879,0,0,0,0,0,0,0,0,0,0,0,0,0,0.5632,0.5634,0.5747,0.5748,0.5749,0.5809,0.581,0.5811,0.5811,0.581,0.5809,0.5808,0.5873,0.5876,0.5879,0,0,0,0,0,0,0,0,0,0,0,0,0,0.5687,0.5635,0.5747,0.5756,0.5758,0.5809,0.581,0.5811,0.5811,0.581,0.5809,0.5808,0.5872,0.5876,0.5879,0.5927,0,0,0.5891,0.5892,0,0,0,0,0,0,0,0,0.5684,0.5691,0.5754,0.5756,0.5757,0.5801,0.5793,0.585,0.5811,0.5791,0.5808,0.5807,0.5851,0.5856,0.587,0.593,0.5932,0.5891,0.5893,0.5895,0.5896,0,0,0,0,0,0,0,0.568,0.5688,0.5772,0.5755,0.5757,0.5758,0.5764,0.5804,0.5827,0.5793,0.5793,0.58,0.5851,0.5867,0.5872,0.5933,0.5891,0.5894,0.5897,0.5898,0.6035,0.6036,0,0,0,0,0,0,0.5674,0.5685,0.577,0.5774,0.5717,0.5761,0.5768,0.5788,0.5826,0.5831,0.5801,0.58,0.5861,0.5868,0.5874,0.5933,0.5895,0.5899,0.5901,0.6034,0.6035,0.6037,0,0,0,0,0,0,0.5671,0.5681,0.5768,0.573,0.5741,0.5764,0.5787,0.579,0.5806,0.5833,0.5837,0.5812,0.586,0.5869,0.5914,0.5935,0.59,0.5904,0.6032,0.6034,0.6036,0.6049,0,0,0,0,0,0,0.5668,0.5681,0.5698,0.573,0.5743,0.5805,0.5788,0.5792,0.5812,0.5811,0.5845,0.5849,0.586,0.5908,0.5917,0.5939,0.5907,0.603,0.6033,0.6035,0.6047,0.6052,0.6055,0,0,0,0,0,0.5664,0.57,0.5699,0.5709,0.5765,0.5806,0.5814,0.5825,0.5813,0.5832,0.5849,0.5848,0.5931,0.5913,0.5923,0.5947,0.6029,0.6032,0.6035,0.6045,0.6051,0.6055,0,0,0,0,0,0,0.5671,0.5704,0.5704,0.5751,0.5776,0.5806,0.583,0.583,0.586,0.5858,0.5871,0.5879,0.5923,0.5939,0.5918,0.5995,0.5979,0.5984,0.5983,0.5988,0.5992,0.5988,0.591,0,0,0,0,0,0.5677,0.5708,0.5735,0.5774,0.5787,0.5806,0.5824,0.5831,0.5858,0.5868,0.5889,0.5916,0.5948,0.5969,0.6,0.6049,0.6057,0.6071,0.6075,0.6078,0.6083,0.6111,0.6118,0.6047,0.6047,0.6047,0,0,0.5692,0.5714,0.5732,0.5776,0.5796,0.5828,0.5815,0.5849,0.5873,0.5874,0.5917,0.5933,0.5964,0.6011,0.6033,0.6026,0.6104,0.6082,0.6084,0.6088,0.6115,0.6122,0.6128,0.6049,0.6049,0.6049,0,0,0.5735,0.5755,0.5789,0.581,0.584,0.5852,0.5861,0.5891,0.5902,0.5945,0.5947,0.5976,0.6031,0.6052,0.6071,0.6122,0.6122,0.6132,0.6154,0.6181,0.6187,0.6192,0.6211,0.6218,0.6136,0.6136,0.6136,0,0.575,0.5797,0.5807,0.5841,0.5861,0.5862,0.5898,0.5918,0.5957,0.5971,0.5962,0.6031,0.6051,0.6104,0.6117,0.6131,0.6142,0.6128,0.6185,0.619,0.6195,0.6214,0.6221,0.6137,0.6137,0.6137,0.6137,0,0.5814,0.5847,0.5871,0.5909,0.5931,0.5966,0.5982,0.6003,0.6008,0.6021,0.6066,0.6091,0.6127,0.614,0.6145,0.6194,0.6188,0.6182,0.6167,0.6203,0.622,0.6228,0.6139,0.6138,0.6138,0.6138,0,0,0.5864,0.5906,0.5915,0.5932,0.5966,0.5992,0.6027,0.6061,0.608,0.6107,0.6137,0.6183,0.6178,0.6199,0.6206,0.623,0.627,0.6221,0.6222,0.623,0.6326,0.6332,0.634,0.627,0.6271,0.6272,0.6324,0,0.5911,0.5973,0.5983,0.6038,0.6069,0.6071,0.6101,0.6126,0.6139,0.6168,0.6183,0.6216,0.6206,0.6219,0.6242,0.626,0.629,0.6256,0.6299,0.6301,0.6293,0.6349,0.6354,0.6402,0.6331,0.6332,0.6333,0,0.5975,0.6003,0.6061,0.609,0.6104,0.6131,0.6164,0.6191,0.6219,0.6227,0.625,0.6255,0.6292,0.6274,0.6326,0.6303,0.6321,0.6333,0.6335,0.634,0.632,0.6357,0.6418,0.6425,0.6344,0.6343,0.6342,0,0.6007,0.6059,0.61,0.6115,0.615,0.6169,0.6185,0.6212,0.6232,0.6261,0.6275,0.6308,0.6326,0.6352,0.6366,0.6351,0.6417,0.64,0.6426,0.6426,0.6441,0.644,0.6507,0.6451,0.6451,0.645,0.645,0,0.6059,0.6094,0.6115,0.614,0.618,0.6192,0.6231,0.6247,0.627,0.63,0.6303,0.633,0.6346,0.6376,0.6387,0.6429,0.6437,0.6446,0.6449,0.6446,0.6445,0.6459,0.6457,0.6452,0.6452,0.6452,0.6451,0,0.6101,0.6116,0.6162,0.6191,0.62,0.6228,0.6254,0.6279,0.6292,0.6329,0.6339,0.636,0.6396,0.6412,0.6455,0.6463,0.6511,0.6511,0.6502,0.6503,0.6529,0.6526,0.6607,0.6619,0.6554,0.6555,0.6555,0,0.6134,0.6162,0.6194,0.6214,0.623,0.6261,0.6282,0.6294,0.6316,0.635,0.6371,0.6407,0.6436,0.6493,0.6513,0.6546,0.6548,0.6574,0.6553,0.655,0.6549,0.6548,0.6551,0.6578,0.6578,0.6579,0.6579,0,0.6191,0.6198,0.6227,0.6259,0.6284,0.631,0.6336,0.6352,0.6368,0.6392,0.6428,0.6451,0.6496,0.6531,0.6566,0.6583,0.6585,0.6586,0.6594,0.6592,0.6586,0.6591,0.6513,0.6584,0.6584,0.6583,0.6583,0.6583,0.6231,0.6255,0.6282,0.6315,0.6336,0.636,0.6385,0.6401,0.6431,0.6468,0.6474,0.6513,0.654,0.6587,0.6606,0.6637,0.6631,0.6642,0.6645,0.6648,0.665,0.658,0.6643,0.6643,0.6643,0.6643,0.6643,0,0.6289,0.6306,0.6336,0.6372,0.6398,0.6396,0.6424,0.6447,0.648,0.6506,0.6534,0.6576,0.661,0.6633,0.6668,0.6688,0.669,0.6697,0.6697,0.6701,0.6653,0.6643,0.6696,0.6696,0.6696,0.6696,0.6695,0.6695,0.6322,0.6364,0.6373,0.6425,0.6443,0.648,0.6497,0.6519,0.6539,0.6586,0.6614,0.6628,0.6653,0.669,0.6722,0.6727,0.6741,0.6748,0.6754,0.6709,0.6704,0.6699,0.6689,0.6751,0.6751,0.6799,0.68,0.68]},{"header":{"parameterUnit":"m.s-1","parameterCategory":1,"la1":30.2991,"la2":30.254,"lo1":-89.0895,"lo2":-89.0444,"dy":0.0017,"dx":0.0017,"nx":28,"ny":28,"refTime":"2025-02-09T09:00:00:Z","depth":0,"parameterNumber":3,"parameterNumberName":"V-component_of_WINDS"},"data":[0,0,0,0,0,0,0,0,0,0,0,0,0,0,0,0,0,0,0,0,0,0,0,0,0,0,0,0,0,0,0,0,0,0,0,0,0,0,0,0,0,0,0,0,0,0,0,0,0,0,0,0,0,0,0,0,0,0,2.4305,2.4305,0,2.4375,2.4376,2.4377,2.4382,2.4382,2.4381,2.438,2.4451,2.4453,2.4456,0,0,0,0,0,0,0,0,0,0,0,0,0,2.4172,2.4174,2.4305,2.4305,2.4306,2.4375,2.4376,2.4377,2.4382,2.4382,2.4381,2.438,2.445,2.4453,2.4456,0,0,0,0,0,0,0,0,0,0,0,0,0,2.4235,2.4175,2.4304,2.4317,2.4319,2.4375,2.4376,2.4378,2.4383,2.4381,2.438,2.4379,2.4449,2.4452,2.4456,2.4504,0,0,2.4468,2.447,0,0,0,0,0,0,0,0,2.4231,2.4239,2.4315,2.4317,2.4319,2.4369,2.4355,2.442,2.4383,2.4358,2.438,2.4379,2.4424,2.443,2.4446,2.4507,2.451,2.4469,2.4471,2.4473,2.4474,0,0,0,0,0,0,0,2.4227,2.4236,2.4333,2.4316,2.4318,2.4319,2.4327,2.4368,2.4397,2.4361,2.4361,2.437,2.4425,2.4442,2.4448,2.4511,2.4468,2.4472,2.4474,2.4476,2.4615,2.4616,0,0,0,0,0,0,2.422,2.4233,2.433,2.4335,2.4271,2.4322,2.4331,2.4354,2.4397,2.4402,2.437,2.4369,2.4436,2.4443,2.445,2.4509,2.4473,2.4476,2.4479,2.4614,2.4615,2.4617,0,0,0,0,0,0,2.4217,2.4229,2.4327,2.4284,2.4297,2.4326,2.4352,2.4356,2.4373,2.4404,2.4409,2.4383,2.4435,2.4445,2.4491,2.4511,2.4478,2.4482,2.4612,2.4614,2.4616,2.4627,0,0,0,0,0,0,2.4213,2.4228,2.4247,2.4284,2.4299,2.4367,2.4353,2.4358,2.438,2.4379,2.4417,2.4422,2.4435,2.4485,2.4494,2.4516,2.4485,2.461,2.4613,2.4615,2.4625,2.4629,2.4632,0,0,0,0,0,2.4209,2.4246,2.4247,2.4259,2.4323,2.4369,2.4377,2.4392,2.4382,2.44,2.442,2.4421,2.4507,2.4489,2.45,2.4524,2.4609,2.4612,2.4615,2.4623,2.4628,2.4632,0,0,0,0,0,0,2.4209,2.4251,2.4253,2.4304,2.4333,2.4369,2.4394,2.4397,2.4429,2.4427,2.4444,2.4452,2.4498,2.4515,2.4494,2.4572,2.4557,2.4562,2.4559,2.4564,2.4568,2.4563,2.4488,0,0,0,0,0,2.4215,2.4249,2.4284,2.4326,2.434,2.4364,2.4385,2.4394,2.4424,2.4436,2.4459,2.4488,2.4522,2.4544,2.4577,2.4627,2.4635,2.4648,2.4652,2.4655,2.466,2.4688,2.4694,2.4627,2.4627,2.4627,0,0,2.4228,2.4255,2.4276,2.4326,2.435,2.4384,2.4375,2.4411,2.4437,2.4442,2.4487,2.4505,2.4538,2.4586,2.4609,2.4602,2.468,2.4659,2.4661,2.4664,2.4692,2.4698,2.4704,2.4629,2.4628,2.4628,0,0,2.4269,2.4293,2.4331,2.4355,2.4391,2.4407,2.4415,2.4452,2.4464,2.451,2.4514,2.4545,2.4602,2.4626,2.4645,2.4696,2.4697,2.4706,2.4726,2.4754,2.4759,2.4764,2.4782,2.4789,2.471,2.471,2.471,0,2.4281,2.4334,2.435,2.4387,2.4409,2.4415,2.4453,2.4475,2.452,2.4534,2.4526,2.4599,2.4622,2.4676,2.4689,2.4704,2.4715,2.4702,2.4757,2.4762,2.4767,2.4785,2.4792,2.4711,2.4711,2.4711,2.4711,0,2.4346,2.4383,2.4409,2.4453,2.4477,2.4515,2.4536,2.4559,2.4566,2.4583,2.4629,2.4656,2.4695,2.4708,2.4715,2.4764,2.4759,2.4754,2.4739,2.4774,2.4791,2.4798,2.4712,2.4712,2.4712,2.4711,0,0,2.439,2.4443,2.4452,2.4472,2.4512,2.454,2.4578,2.4616,2.4636,2.4666,2.4698,2.4747,2.4742,2.4765,2.4774,2.4798,2.4837,2.479,2.4791,2.4798,2.4893,2.4897,2.4904,2.4837,2.4839,2.484,2.489,0,2.4437,2.4505,2.452,2.4578,2.4612,2.4619,2.4651,2.4679,2.4695,2.4726,2.4744,2.4778,2.477,2.4783,2.4807,2.4827,2.4856,2.4823,2.4867,2.4869,2.486,2.4913,2.4918,2.4964,2.4897,2.4898,2.4899,0,2.45,2.4533,2.4595,2.4631,2.4646,2.4675,2.4712,2.4741,2.4772,2.4783,2.4807,2.4814,2.4853,2.4836,2.489,2.4867,2.4886,2.4898,2.49,2.4905,2.4886,2.4921,2.4979,2.4986,2.4909,2.4908,2.4908,0,2.4527,2.4586,2.4631,2.4648,2.4691,2.4712,2.473,2.476,2.4783,2.4814,2.4829,2.4864,2.4884,2.4911,2.4927,2.4913,2.4979,2.4964,2.4989,2.4989,2.5003,2.5002,2.5066,2.5014,2.5014,2.5014,2.5013,0,2.4578,2.4616,2.4644,2.4672,2.4714,2.4731,2.4772,2.4791,2.4818,2.4849,2.4855,2.4884,2.4903,2.4935,2.4947,2.499,2.4998,2.5008,2.5011,2.5008,2.5007,2.5021,2.5018,2.5015,2.5015,2.5015,2.5014,0,2.4615,2.4636,2.4686,2.4722,2.4732,2.4762,2.4793,2.482,2.4836,2.4876,2.4886,2.4911,2.4948,2.4967,2.5013,2.5021,2.507,2.507,2.506,2.5061,2.5086,2.5083,2.5161,2.5173,2.5112,2.5113,2.5113,0,2.4647,2.4676,2.4717,2.4738,2.4758,2.4792,2.4816,2.4833,2.4856,2.4895,2.4917,2.4954,2.4986,2.5045,2.5067,2.5102,2.5104,2.5129,2.5109,2.5106,2.5105,2.5104,2.5107,2.5133,2.5133,2.5134,2.5134,0,2.4701,2.471,2.4743,2.4781,2.4808,2.4838,2.4868,2.4885,2.4907,2.4933,2.4971,2.4996,2.5043,2.508,2.5117,2.5136,2.5139,2.514,2.5148,2.5145,2.5138,2.5143,2.507,2.5138,2.5138,2.5138,2.5137,2.5137,2.4737,2.4764,2.4797,2.4834,2.4858,2.4885,2.4913,2.4933,2.4966,2.5006,2.5014,2.5055,2.5085,2.5135,2.5155,2.5187,2.5181,2.5193,2.5196,2.5198,2.52,2.5133,2.5193,2.5193,2.5193,2.5193,2.5193,0,2.4792,2.4814,2.4848,2.4889,2.4918,2.4919,2.4952,2.4976,2.5012,2.5041,2.5072,2.5116,2.5152,2.5177,2.5214,2.5235,2.5237,2.5244,2.5243,2.5247,2.5202,2.5192,2.5242,2.5242,2.5242,2.5242,2.5241,2.5241,2.4824,2.487,2.4883,2.494,2.4961,2.5002,2.5021,2.5046,2.5069,2.5118,2.5149,2.5165,2.5192,2.5231,2.5264,2.5271,2.5284,2.5291,2.5298,2.5255,2.525,2.5246,2.5236,2.5294,2.5294,2.534,2.5341,2.5341]}]]